Regional Weather Roundup
Issued by NWS

Home | Current Version | Previous Version | Text Only | Print | Product List | Glossary Off
Versions: 1 2 3 4 5 6 7 8 9 10 11 12 13 14 15 16 17 18 19 20 21 22 23 24 25 26 27 28 29 30 31 32 33 34 35 36 37 38 39 40 41 42 43 44 45 46 47 48 49 50

000
ASUS43 KMKX 020059
RWRWI

WISCONSIN REGIONAL WEATHER ROUNDUP
NATIONAL WEATHER SERVICE MILWAUKEE/SULLIVAN WI
800 PM CDT WED APR 01 2015

NOTE: "FAIR" INDICATES FEW OR NO CLOUDS BELOW 12,000 FEET WITH NO
SIGNIFICANT WEATHER AND/OR OBSTRUCTIONS TO VISIBILITY.

WIZ001-002-006>008-014>016-023>028-020200-
NORTHWEST WISCONSIN

CITY           SKY/WX    TMP DP  RH WIND       PRES   REMARKS
SUPERIOR ARPT  CLOUDY    34  33  94 NE8       29.49F WCI  27
ASHLAND        MOCLDY    67  39  35 SW21G31   29.49R
HAYWARD        LGT RAIN  56  41  57 CALM      29.50F
SIREN          LGT RAIN  59  50  72 W14       29.56R
CUMBERLAND     MOCLDY    68  32  26 S18G29    29.48F
RICE LAKE      MOCLDY    72  31  22 S20G29    29.51F
CHETEK         MOCLDY    72  34  25 S16G25    29.51F
LADYSMITH      CLOUDY    69  35  28 S9G16     29.55F
EAU CLAIRE     NOT AVBL
MENOMONIE      PTCLDY    72  31  21 S20       29.51F
NEW RICHMOND   MOCLDY    72  36  26 S22       29.47S
OSCEOLA        MOCLDY    73  37  26 SW13      29.51R
$$

WIZ003>005-009-010-017-018-020200-
NORTH CENTRAL WISCONSIN

CITY           SKY/WX    TMP DP  RH WIND       PRES   REMARKS
MANITOWISH WTR MOCLDY    53  36  52 S7        29.58S
ARBOR VITAE    CLOUDY    56  38  51 S8        29.59F
WOODRUFF       CLOUDY    56  38  51 S8        29.59F
RHINELANDER    MOCLDY    55  36  48 SE10      29.62F
EAGLE RIVER    CLOUDY    52  33  48 S8G16     29.61F
LAND O LAKES   CLOUDY    52  35  51 S9G18     29.60F
PHILLIPS       CLOUDY    62  39  42 S8        29.56F
TOMAHAWK       MOCLDY    55  37  49 CALM      29.61S
MEDFORD        MOCLDY    65  38  37 S12G18    29.59F
MERRILL        CLOUDY    59  39  48 SE6       29.61F
$$

WIZ029-030-035-036-043>047-020200-
CENTRAL WISCONSIN

CITY           SKY/WX    TMP DP  RH WIND       PRES   REMARKS
WAUSAU         CLOUDY    67  34  29 S13       29.60F
MOSINEE        CLEAR     64  34  32 S15G21    29.63F
MARSHFIELD     MOCLDY    69  31  24 S18G28    29.61F
STEVENS POINT  MOCLDY    66  36  32 S9        29.64F
WAUPACA        MOCLDY    69  35  28 SE9       29.67F
WAUTOMA        NOT AVBL
WISC RAPIDS    MOCLDY    70  30  22 S10       29.64F
CAMP DOUGLAS   NOT AVBL
$$

WIZ011>013-019>022-031-037>040-048>050-020200-
NORTHEAST WISCONSIN

CITY           SKY/WX    TMP DP  RH WIND       PRES   REMARKS
ANTIGO         CLOUDY    51  39  64 SE14      29.65F
SHAWANO        CLOUDY    56  40  55 S6        29.69F
OCONTO         CLOUDY    48  37  65 SE6       29.71F
STURGEON BAY   CLOUDY    46  36  66 S18G26    29.75F
GREEN BAY      CLOUDY    55  40  56 S14       29.70F
MANITOWOC      NOT AVBL
APPLETON       MOCLDY    55  37  50 S15       29.71F
CLINTONVILLE   MOCLDY    55  39  54 SE8       29.68F
OSHKOSH        PTCLDY    56  41  57 S10       29.71F
$$

WIZ032>034-041-042-053>061-020200-
SOUTHWEST WISCONSIN

CITY           SKY/WX    TMP DP  RH WIND       PRES   REMARKS
LA CROSSE      PTCLDY    73  34  23 S20G31    29.58F
SPARTA         PTCLDY    71  29  21 S14G21    29.63F
VIROQUA        PTCLDY    68  33  27 S16G24    29.67S
BOSCOBEL         N/A     72  34  24 S15G24    29.69S
PRAIRIE DU CHI PTCLDY    73  29  19 S15G24    29.68S
PLATTEVILLE    CLEAR     64  36  34 SE14      29.74F
$$

WIZ056-057-062-063-064-067-068-020200-
SOUTH CENTRAL WISCONSIN

CITY           SKY/WX    TMP DP  RH WIND       PRES   REMARKS
REEDSBURG      MOCLDY    69  35  28 S14G22    29.69S
BARABOO/DELLS  MOCLDY    70  31  23 S15G22    29.70S
LONE ROCK      NOT AVBL
MINERAL POINT  PTCLDY    68  30  24 S15       29.74F
MADISON        MOCLDY    68  35  29 S13       29.74F
MIDDLETON      PTCLDY    70  29  22 S16G22    29.74S
WATERTOWN      PTCLDY    66  39  37 S12       29.76F
MONROE         PTCLDY    68  36  30 S22G30    29.77S
JANESVILLE     NOT AVBL
$$

WIZ051-052-058>065-066-070>072-020200-
SOUTHEAST WISCONSIN

CITY           SKY/WX    TMP DP  RH WIND       PRES   REMARKS
MILWAUKEE      MOCLDY    58  36  43 S10       29.82F
WAUKESHA       MOCLDY    66  36  32 S12G18    29.81S
MILWAUKEE/TIMM CLEAR     61  34  36 S10       29.81S
RACINE         PTCLDY    51  36  56 S9        29.84F
BURLINGTON     PTCLDY    64  35  34 S12G20    29.81S
KENOSHA        PTCLDY    66  38  35 S13       29.83S
FOND DU LAC    PTCLDY    58  39  49 S12       29.73F
SHEBOYGAN      MOCLDY    50  36  58 S15       29.77F
WEST BEND      PTCLDY    55  34  44 S8        29.78S
JUNEAU         PTCLDY    65  36  33 S14       29.76F
$$

LSZ147-162-020200-
LAKE SUPERIOR

STATION/POSITION TIME  TEMP    WIND        PRES    WAVE
                       AIR SEA DIR/SP/G            HT/PER
                 (UTC) (F)     (DEG/KT/KT) (MB)    (FT/S)
DEVILS ISLAND    0000   37      50/ 16/ 17  998.2F
PORT WING        0000   35      40/ 12/ 15  998.6F
SAXON HARBOR     0000   66     190/ 12/ 19  997.3F
$$

LMZ867-665-643>646-020200-
LAKE MICHIGAN

STATION/POSITION TIME  TEMP    WIND        PRES    WAVE
                       AIR SEA DIR/SP/G            HT/PER
                 (UTC) (F)     (DEG/KT/KT) (MB)    (FT/S)
NORTHPORT PIER   0000   38     140/ 11/ 14 1009.1F
KEWAUNEE LAKESHO 0000   41     190/ 17/ 19 1007.6F
SHEBOYGAN LAKESH 0000   41     180/ 16/ 17 1009.5F
PORT WASHINGTON  0040   44     200/ 10/ 15 1009.8F
MILWAUKEE LAKESH 0000   44     150/ 13/ 14   N/A
KENOSHA   LAKESH 0000   47     170/ 15/ 18 1010.2F
$$

TC  - TEMPERATURE IN CELSIUS
VSB - VISIBILITY IN STATUTE MILES
WCI - WIND CHILL INDEX
HX  - HEAT INDEX




USA.gov is the U.S. government's official web portal to all federal, state and local government web resources and services.